Year,Month,Day,Hour,Minute,Value (Times are PST for temperature in C)
2007,06,21,00,00,16.70
2007,06,21,00,01,16.70
2007,06,21,00,02,16.70
2007,06,21,00,03,16.80
2007,06,21,00,04,16.80
2007,06,21,00,05,16.80
2007,06,21,00,06,16.80
2007,06,21,00,07,16.80
2007,06,21,00,08,16.80
2007,06,21,00,09,16.80
2007,06,21,00,10,16.80
2007,06,21,00,11,16.80
2007,06,21,00,12,16.80
2007,06,21,00,13,16.80
2007,06,21,00,14,16.80
2007,06,21,00,15,16.90
2007,06,21,00,16,16.90
2007,06,21,00,17,16.90
2007,06,21,00,18,16.90
2007,06,21,00,19,16.90
2007,06,21,00,20,16.90
2007,06,21,00,21,16.90
2007,06,21,00,22,16.90
2007,06,21,00,23,16.90
2007,06,21,00,24,16.90
2007,06,21,00,25,16.90
2007,06,21,00,26,16.90
2007,06,21,00,27,16.90
2007,06,21,00,28,16.90
2007,06,21,00,29,16.90
2007,06,21,00,30,16.90
2007,06,21,00,31,16.90
2007,06,21,00,32,16.90
2007,06,21,00,33,16.90
2007,06,21,00,34,16.90
2007,06,21,00,35,16.90
2007,06,21,00,36,16.90
2007,06,21,00,37,16.90
2007,06,21,00,38,16.90
2007,06,21,00,39,16.90
2007,06,21,00,40,16.90
2007,06,21,00,41,16.90
2007,06,21,00,42,16.90
2007,06,21,00,43,16.90
2007,06,21,00,44,16.90
2007,06,21,00,45,16.90
2007,06,21,00,46,16.90
2007,06,21,00,47,16.90
2007,06,21,00,48,16.90
2007,06,21,00,49,16.90
2007,06,21,00,50,16.90
2007,06,21,00,51,16.90
2007,06,21,00,52,16.90
2007,06,21,00,53,16.90
2007,06,21,00,54,16.90
2007,06,21,00,55,16.90
2007,06,21,00,56,16.80
2007,06,21,00,57,16.80
2007,06,21,00,58,16.80
2007,06,21,00,59,16.80
2007,06,21,01,00,16.80
2007,06,21,01,01,16.80
2007,06,21,01,02,16.80
2007,06,21,01,03,16.80
2007,06,21,01,04,16.70
2007,06,21,01,05,16.70
2007,06,21,01,06,16.70
2007,06,21,01,07,16.70
2007,06,21,01,08,16.70
2007,06,21,01,09,16.70
2007,06,21,01,10,16.60
2007,06,21,01,11,16.60
2007,06,21,01,12,16.60
2007,06,21,01,13,16.60
2007,06,21,01,14,16.60
2007,06,21,01,15,16.60
2007,06,21,01,16,16.60
2007,06,21,01,17,16.60
2007,06,21,01,18,16.60
2007,06,21,01,19,16.60
2007,06,21,01,20,16.60
2007,06,21,01,21,16.60
2007,06,21,01,22,16.60
2007,06,21,01,23,16.70
2007,06,21,01,24,16.70
2007,06,21,01,25,16.70
2007,06,21,01,26,16.70
2007,06,21,01,27,16.70
2007,06,21,01,28,16.70
2007,06,21,01,29,16.70
2007,06,21,01,30,16.70
2007,06,21,01,31,16.70
2007,06,21,01,32,16.70
2007,06,21,01,33,16.70
2007,06,21,01,34,16.70
2007,06,21,01,35,16.70
2007,06,21,01,36,16.70
2007,06,21,01,37,16.70
2007,06,21,01,38,16.60
2007,06,21,01,39,16.60
2007,06,21,01,40,16.60
2007,06,21,01,41,16.60
2007,06,21,01,42,16.50
2007,06,21,01,43,16.50
2007,06,21,01,44,16.40
2007,06,21,01,45,16.40
2007,06,21,01,46,16.40
2007,06,21,01,47,16.40
2007,06,21,01,48,16.30
2007,06,21,01,49,16.30
2007,06,21,01,50,16.30
2007,06,21,01,51,16.30
2007,06,21,01,52,16.30
2007,06,21,01,53,16.30
2007,06,21,01,54,16.30
2007,06,21,01,55,16.30
2007,06,21,01,56,16.20
2007,06,21,01,57,16.20
2007,06,21,01,58,16.20
2007,06,21,01,59,16.20
2007,06,21,02,00,16.20
2007,06,21,02,01,16.20
2007,06,21,02,02,16.20
2007,06,21,02,03,16.20
2007,06,21,02,04,16.20
2007,06,21,02,05,16.20
2007,06,21,02,06,16.20
2007,06,21,02,07,16.20
2007,06,21,02,08,16.20
2007,06,21,02,09,16.20
2007,06,21,02,10,16.20
2007,06,21,02,11,16.20
2007,06,21,02,12,16.20
2007,06,21,02,13,16.20
2007,06,21,02,14,16.20
2007,06,21,02,15,16.10
2007,06,21,02,16,16.10
2007,06,21,02,17,16.10
2007,06,21,02,18,16.10
2007,06,21,02,19,16.10
2007,06,21,02,20,16.10
2007,06,21,02,21,16.10
2007,06,21,02,22,16.10
2007,06,21,02,23,16.00
2007,06,21,02,24,16.00
2007,06,21,02,25,16.00
2007,06,21,02,26,16.00
2007,06,21,02,27,16.00
2007,06,21,02,28,16.00
2007,06,21,02,29,16.00
2007,06,21,02,30,15.90
2007,06,21,02,31,15.90
2007,06,21,02,32,15.90
2007,06,21,02,33,15.90
2007,06,21,02,34,15.90
2007,06,21,02,35,15.90
2007,06,21,02,36,15.90
2007,06,21,02,37,15.90
2007,06,21,02,38,15.90
2007,06,21,02,39,15.90
2007,06,21,02,40,15.90
2007,06,21,02,41,15.90
2007,06,21,02,42,15.80
2007,06,21,02,43,15.80
2007,06,21,02,44,15.80
2007,06,21,02,45,15.80
2007,06,21,02,46,15.80
2007,06,21,02,47,15.70
2007,06,21,02,48,15.70
2007,06,21,02,49,15.70
2007,06,21,02,50,15.60
2007,06,21,02,51,15.60
2007,06,21,02,52,15.60
2007,06,21,02,53,15.60
2007,06,21,02,54,15.60
2007,06,21,02,55,15.60
2007,06,21,02,56,15.60
2007,06,21,02,57,15.70
2007,06,21,02,58,15.70
2007,06,21,02,59,15.70
2007,06,21,03,00,15.70
2007,06,21,03,01,15.70
2007,06,21,03,02,15.70
2007,06,21,03,03,15.70
2007,06,21,03,04,15.70
2007,06,21,03,05,15.70
2007,06,21,03,06,15.70
2007,06,21,03,07,15.70
2007,06,21,03,08,15.70
2007,06,21,03,09,15.70
2007,06,21,03,10,15.70
2007,06,21,03,11,15.70
2007,06,21,03,12,15.70
2007,06,21,03,13,15.70
2007,06,21,03,14,15.60
2007,06,21,03,15,15.60
2007,06,21,03,16,15.70
2007,06,21,03,17,15.70
2007,06,21,03,18,15.70
2007,06,21,03,19,15.70
2007,06,21,03,20,15.70
2007,06,21,03,21,15.70
2007,06,21,03,22,15.60
2007,06,21,03,23,15.60
2007,06,21,03,24,15.60
2007,06,21,03,25,15.50
2007,06,21,03,26,15.50
2007,06,21,03,27,15.40
2007,06,21,03,28,15.40
2007,06,21,03,29,15.30
2007,06,21,03,30,15.30
2007,06,21,03,31,15.30
2007,06,21,03,32,15.20
2007,06,21,03,33,15.20
2007,06,21,03,34,15.10
2007,06,21,03,35,15.00
2007,06,21,03,36,15.00
2007,06,21,03,37,15.00
2007,06,21,03,38,15.00
2007,06,21,03,39,14.90
2007,06,21,03,40,14.90
2007,06,21,03,41,14.80
2007,06,21,03,42,14.70
2007,06,21,03,43,14.70
2007,06,21,03,44,14.70
2007,06,21,03,45,14.60
2007,06,21,03,46,14.60
2007,06,21,03,47,14.60
2007,06,21,03,48,14.50
2007,06,21,03,49,14.40
2007,06,21,03,50,14.40
2007,06,21,03,51,14.40
2007,06,21,03,52,14.40
2007,06,21,03,53,14.30
2007,06,21,03,54,14.30
2007,06,21,03,55,14.30
2007,06,21,03,56,14.20
2007,06,21,03,57,14.20
2007,06,21,03,58,14.10
2007,06,21,03,59,14.10
2007,06,21,04,00,14.00
2007,06,21,04,01,14.00
2007,06,21,04,02,13.90
2007,06,21,04,03,13.90
2007,06,21,04,04,13.80
2007,06,21,04,05,13.80
2007,06,21,04,06,13.80
2007,06,21,04,07,13.70
2007,06,21,04,08,13.70
2007,06,21,04,09,13.70
2007,06,21,04,10,13.60
2007,06,21,04,11,13.60
2007,06,21,04,12,13.60
2007,06,21,04,13,13.50
2007,06,21,04,14,13.50
2007,06,21,04,15,13.50
2007,06,21,04,16,13.40
2007,06,21,04,17,13.40
2007,06,21,04,18,13.40
2007,06,21,04,19,13.40
2007,06,21,04,20,13.40
2007,06,21,04,21,13.40
2007,06,21,04,22,13.40
2007,06,21,04,23,13.40
2007,06,21,04,24,13.40
2007,06,21,04,25,13.40
2007,06,21,04,26,13.40
2007,06,21,04,27,13.40
2007,06,21,04,28,13.40
2007,06,21,04,29,13.40
2007,06,21,04,30,13.40
2007,06,21,04,31,13.40
2007,06,21,04,32,13.40
2007,06,21,04,33,13.40
2007,06,21,04,34,13.40
2007,06,21,04,35,13.40
2007,06,21,04,36,13.40
2007,06,21,04,37,13.40
2007,06,21,04,38,13.40
2007,06,21,04,39,13.50
2007,06,21,04,40,13.50
2007,06,21,04,41,13.50
2007,06,21,04,42,13.50
2007,06,21,04,43,13.50
2007,06,21,04,44,13.50
2007,06,21,04,45,13.50
2007,06,21,04,46,13.50
2007,06,21,04,47,13.50
2007,06,21,04,48,13.50
2007,06,21,04,49,13.50
2007,06,21,04,50,13.50
2007,06,21,04,51,13.50
2007,06,21,04,52,13.50
2007,06,21,04,53,13.50
2007,06,21,04,54,13.50
2007,06,21,04,55,13.50
2007,06,21,04,56,13.50
2007,06,21,04,57,13.50
2007,06,21,04,58,13.50
2007,06,21,04,59,13.50
2007,06,21,05,00,13.50
2007,06,21,05,01,13.50
2007,06,21,05,02,13.50
2007,06,21,05,03,13.50
2007,06,21,05,04,13.50
2007,06,21,05,05,13.50
2007,06,21,05,06,13.50
2007,06,21,05,07,13.50
2007,06,21,05,08,13.50
2007,06,21,05,09,13.50
2007,06,21,05,10,13.50
2007,06,21,05,11,13.50
2007,06,21,05,12,13.50
2007,06,21,05,13,13.60
2007,06,21,05,14,13.60
2007,06,21,05,15,13.60
2007,06,21,05,16,13.60
2007,06,21,05,17,13.60
2007,06,21,05,18,13.60
2007,06,21,05,19,13.60
2007,06,21,05,20,13.60
2007,06,21,05,21,13.60
2007,06,21,05,22,13.60
2007,06,21,05,23,13.60
2007,06,21,05,24,13.60
2007,06,21,05,25,13.60
2007,06,21,05,26,13.60
2007,06,21,05,27,13.60
2007,06,21,05,28,13.60
2007,06,21,05,29,13.60
2007,06,21,05,30,13.50
2007,06,21,05,31,13.50
2007,06,21,05,32,13.50
2007,06,21,05,33,13.40
2007,06,21,05,34,13.40
2007,06,21,05,35,13.40
2007,06,21,05,36,13.30
2007,06,21,05,37,13.30
2007,06,21,05,38,13.30
2007,06,21,05,39,13.20
2007,06,21,05,40,13.20
2007,06,21,05,41,13.10
2007,06,21,05,42,13.10
2007,06,21,05,43,13.00
2007,06,21,05,44,13.00
2007,06,21,05,45,12.90
2007,06,21,05,46,12.90
2007,06,21,05,47,12.90
2007,06,21,05,48,12.80
2007,06,21,05,49,12.80
2007,06,21,05,50,12.80
2007,06,21,05,51,12.80
2007,06,21,05,52,12.80
2007,06,21,05,53,12.80
2007,06,21,05,54,12.80
2007,06,21,05,55,12.80
2007,06,21,05,56,12.80
2007,06,21,05,57,12.80
2007,06,21,05,58,12.80
2007,06,21,05,59,12.80
2007,06,21,06,00,12.80
2007,06,21,06,01,12.80
2007,06,21,06,02,12.70
2007,06,21,06,03,12.70
2007,06,21,06,04,12.70
2007,06,21,06,05,12.70
2007,06,21,06,06,12.60
2007,06,21,06,07,12.60
2007,06,21,06,08,12.60
2007,06,21,06,09,12.60
2007,06,21,06,10,12.50
2007,06,21,06,11,12.50
2007,06,21,06,12,12.50
2007,06,21,06,13,12.40
2007,06,21,06,14,12.40
2007,06,21,06,15,12.40
2007,06,21,06,16,12.40
2007,06,21,06,17,12.30
2007,06,21,06,18,12.30
2007,06,21,06,19,12.30
2007,06,21,06,20,12.30
2007,06,21,06,21,12.30
2007,06,21,06,22,12.20
2007,06,21,06,23,12.20
2007,06,21,06,24,12.20
2007,06,21,06,25,12.20
2007,06,21,06,26,12.30
2007,06,21,06,27,12.30
2007,06,21,06,28,12.30
2007,06,21,06,29,12.30
2007,06,21,06,30,12.30
2007,06,21,06,31,12.30
2007,06,21,06,32,12.30
2007,06,21,06,33,12.30
2007,06,21,06,34,12.30
2007,06,21,06,35,12.30
2007,06,21,06,36,12.30
2007,06,21,06,37,12.30
2007,06,21,06,38,12.30
2007,06,21,06,39,12.30
2007,06,21,06,40,12.30
2007,06,21,06,41,12.30
2007,06,21,06,42,12.30
2007,06,21,06,43,12.30
2007,06,21,06,44,12.30
2007,06,21,06,45,12.30
2007,06,21,06,46,12.30
2007,06,21,06,47,12.30
2007,06,21,06,48,12.30
2007,06,21,06,49,12.30
2007,06,21,06,50,12.30
2007,06,21,06,51,12.40
2007,06,21,06,52,12.40
2007,06,21,06,53,12.40
2007,06,21,06,54,12.40
2007,06,21,06,55,12.40
2007,06,21,06,56,12.40
2007,06,21,06,57,12.40
2007,06,21,06,58,12.40
2007,06,21,06,59,12.30
2007,06,21,07,00,12.30
2007,06,21,07,01,12.30
2007,06,21,07,02,12.30
2007,06,21,07,03,12.30
2007,06,21,07,04,12.30
2007,06,21,07,05,12.30
2007,06,21,07,06,12.30
2007,06,21,07,07,12.30
2007,06,21,07,08,12.40
2007,06,21,07,09,12.40
2007,06,21,07,10,12.40
2007,06,21,07,11,12.40
2007,06,21,07,12,12.40
2007,06,21,07,13,12.40
2007,06,21,07,14,12.40
2007,06,21,07,15,12.40
2007,06,21,07,16,12.40
2007,06,21,07,17,12.40
2007,06,21,07,18,12.40
2007,06,21,07,19,12.40
2007,06,21,07,20,12.40
2007,06,21,07,21,12.40
2007,06,21,07,22,12.40
2007,06,21,07,23,12.40
2007,06,21,07,24,12.40
2007,06,21,07,25,12.40
2007,06,21,07,26,12.40
2007,06,21,07,27,12.40
2007,06,21,07,28,12.40
2007,06,21,07,29,12.50
2007,06,21,07,30,12.50
2007,06,21,07,31,12.50
2007,06,21,07,32,12.50
2007,06,21,07,33,12.60
2007,06,21,07,34,12.60
2007,06,21,07,35,12.60
2007,06,21,07,36,12.60
2007,06,21,07,37,12.60
2007,06,21,07,38,12.70
2007,06,21,07,39,12.70
2007,06,21,07,40,12.70
2007,06,21,07,41,12.70
2007,06,21,07,42,12.70
2007,06,21,07,43,12.70
2007,06,21,07,44,12.70
2007,06,21,07,45,12.70
2007,06,21,07,46,12.70
2007,06,21,07,47,12.70
2007,06,21,07,48,12.80
2007,06,21,07,49,12.80
2007,06,21,07,50,12.80
2007,06,21,07,51,12.80
2007,06,21,07,52,12.80
2007,06,21,07,53,12.80
2007,06,21,07,54,12.80
2007,06,21,07,55,12.80
2007,06,21,07,56,12.80
2007,06,21,07,57,12.80
2007,06,21,07,58,12.80
2007,06,21,07,59,12.80
2007,06,21,08,00,12.80
2007,06,21,08,01,12.80
2007,06,21,08,02,12.90
2007,06,21,08,03,12.90
2007,06,21,08,04,12.90
2007,06,21,08,05,12.90
2007,06,21,08,06,13.00
2007,06,21,08,07,13.00
2007,06,21,08,08,13.00
2007,06,21,08,09,13.00
2007,06,21,08,10,13.00
2007,06,21,08,11,13.10
2007,06,21,08,12,13.10
2007,06,21,08,13,13.10
2007,06,21,08,14,13.10
2007,06,21,08,15,13.10
2007,06,21,08,16,13.10
2007,06,21,08,17,13.10
2007,06,21,08,18,13.10
2007,06,21,08,19,13.10
2007,06,21,08,20,13.10
2007,06,21,08,21,13.20
2007,06,21,08,22,13.20
2007,06,21,08,23,13.20
2007,06,21,08,24,13.30
2007,06,21,08,25,13.30
2007,06,21,08,26,13.30
2007,06,21,08,27,13.30
2007,06,21,08,28,13.30
2007,06,21,08,29,13.30
2007,06,21,08,30,13.30
2007,06,21,08,31,13.30
2007,06,21,08,32,13.30
2007,06,21,08,33,13.30
2007,06,21,08,34,13.30
2007,06,21,08,35,13.30
2007,06,21,08,36,13.30
2007,06,21,08,37,13.30
2007,06,21,08,38,13.30
2007,06,21,08,39,13.30
2007,06,21,08,40,13.30
2007,06,21,08,41,13.20
2007,06,21,08,42,13.20
2007,06,21,08,43,13.20
2007,06,21,08,44,13.20
2007,06,21,08,45,13.20
2007,06,21,08,46,13.10
2007,06,21,08,47,13.10
2007,06,21,08,48,13.10
2007,06,21,08,49,13.00
2007,06,21,08,50,13.00
2007,06,21,08,51,13.00
2007,06,21,08,52,12.90
2007,06,21,08,53,12.90
2007,06,21,08,54,12.90
2007,06,21,08,55,12.90
2007,06,21,08,56,12.90
2007,06,21,08,57,12.90
2007,06,21,08,58,12.90
2007,06,21,08,59,12.90
2007,06,21,09,00,12.90
2007,06,21,09,01,13.00
2007,06,21,09,02,13.00
2007,06,21,09,03,13.00
2007,06,21,09,04,13.10
2007,06,21,09,05,13.10
2007,06,21,09,06,13.10
2007,06,21,09,07,13.10
2007,06,21,09,08,13.10
2007,06,21,09,09,13.20
2007,06,21,09,10,13.20
2007,06,21,09,11,13.30
2007,06,21,09,12,13.30
2007,06,21,09,13,13.30
2007,06,21,09,14,13.30
2007,06,21,09,15,13.30
2007,06,21,09,16,13.40
2007,06,21,09,17,13.40
2007,06,21,09,18,13.50
2007,06,21,09,19,13.50
2007,06,21,09,20,13.60
2007,06,21,09,21,13.70
2007,06,21,09,22,13.70
2007,06,21,09,23,13.70
2007,06,21,09,24,13.80
2007,06,21,09,25,13.80
2007,06,21,09,26,13.80
2007,06,21,09,27,13.80
2007,06,21,09,28,13.90
2007,06,21,09,29,13.90
2007,06,21,09,30,14.00
2007,06,21,09,31,14.00
2007,06,21,09,32,14.10
2007,06,21,09,33,14.10
2007,06,21,09,34,14.10
2007,06,21,09,35,14.20
2007,06,21,09,36,14.20
2007,06,21,09,37,14.30
2007,06,21,09,38,14.30
2007,06,21,09,39,14.30
2007,06,21,09,40,14.30
2007,06,21,09,41,14.30
2007,06,21,09,42,14.30
2007,06,21,09,43,14.30
2007,06,21,09,44,14.30
2007,06,21,09,45,14.30
2007,06,21,09,46,14.30
2007,06,21,09,47,14.30
2007,06,21,09,48,14.30
2007,06,21,09,49,14.30
2007,06,21,09,50,14.30
2007,06,21,09,51,14.30
2007,06,21,09,52,14.20
2007,06,21,09,53,14.20
2007,06,21,09,54,14.20
2007,06,21,09,55,14.20
2007,06,21,09,56,14.20
2007,06,21,09,57,14.20
2007,06,21,09,58,14.20
2007,06,21,09,59,14.20
2007,06,21,10,00,14.20
2007,06,21,10,01,14.20
2007,06,21,10,02,14.30
2007,06,21,10,03,14.30
2007,06,21,10,04,14.30
2007,06,21,10,05,14.30
2007,06,21,10,06,14.40
2007,06,21,10,07,14.40
2007,06,21,10,08,14.50
2007,06,21,10,09,14.50
2007,06,21,10,10,14.60
2007,06,21,10,11,14.60
2007,06,21,10,12,14.70
2007,06,21,10,13,14.70
2007,06,21,10,14,14.80
2007,06,21,10,15,14.80
2007,06,21,10,16,15.00
2007,06,21,10,17,15.00
2007,06,21,10,18,15.00
2007,06,21,10,19,15.00
2007,06,21,10,20,15.00
2007,06,21,10,21,15.00
2007,06,21,10,22,15.00
2007,06,21,10,23,15.00
2007,06,21,10,24,14.90
2007,06,21,10,25,15.00
2007,06,21,10,26,15.00
2007,06,21,10,27,15.00
2007,06,21,10,28,15.00
2007,06,21,10,29,15.00
2007,06,21,10,30,15.00
2007,06,21,10,31,15.00
2007,06,21,10,32,15.00
2007,06,21,10,33,15.00
2007,06,21,10,34,15.00
2007,06,21,10,35,15.00
2007,06,21,10,36,15.00
2007,06,21,10,37,15.20
2007,06,21,10,38,15.20
2007,06,21,10,39,15.30
2007,06,21,10,40,15.40
2007,06,21,10,41,15.40
2007,06,21,10,42,15.40
2007,06,21,10,43,15.50
2007,06,21,10,44,15.60
2007,06,21,10,45,15.60
2007,06,21,10,46,15.70
2007,06,21,10,47,15.70
2007,06,21,10,48,15.70
2007,06,21,10,49,15.80
2007,06,21,10,50,15.90
2007,06,21,10,51,15.90
2007,06,21,10,52,16.00
2007,06,21,10,53,16.10
2007,06,21,10,54,16.30
2007,06,21,10,55,16.30
2007,06,21,10,56,16.30
2007,06,21,10,57,16.30
2007,06,21,10,58,16.40
2007,06,21,10,59,16.40
2007,06,21,11,00,16.30
2007,06,21,11,01,16.30
2007,06,21,11,02,16.30
2007,06,21,11,03,16.30
2007,06,21,11,04,16.40
2007,06,21,11,05,16.50
2007,06,21,11,06,16.50
2007,06,21,11,07,16.50
2007,06,21,11,08,16.40
2007,06,21,11,09,16.40
2007,06,21,11,10,16.50
2007,06,21,11,11,16.50
2007,06,21,11,12,16.50
2007,06,21,11,13,16.50
2007,06,21,11,14,16.40
2007,06,21,11,15,16.40
2007,06,21,11,16,16.40
2007,06,21,11,17,16.40
2007,06,21,11,18,16.30
2007,06,21,11,19,16.20
2007,06,21,11,20,16.20
2007,06,21,11,21,16.10
2007,06,21,11,22,16.10
2007,06,21,11,23,16.10
2007,06,21,11,24,16.10
2007,06,21,11,25,16.10
2007,06,21,11,26,16.10
2007,06,21,11,27,16.20
2007,06,21,11,28,16.20
2007,06,21,11,29,16.30
2007,06,21,11,30,16.30
2007,06,21,11,31,16.40
2007,06,21,11,32,16.50
2007,06,21,11,33,16.50
2007,06,21,11,34,16.60
2007,06,21,11,35,16.60
2007,06,21,11,36,16.70
2007,06,21,11,37,16.70
2007,06,21,11,38,16.60
2007,06,21,11,39,16.60
2007,06,21,11,40,16.60
2007,06,21,11,41,16.60
2007,06,21,11,42,16.70
2007,06,21,11,43,16.70
2007,06,21,11,44,16.80
2007,06,21,11,45,16.80
2007,06,21,11,46,16.80
2007,06,21,11,47,16.90
2007,06,21,11,48,16.90
2007,06,21,11,49,16.90
2007,06,21,11,50,16.90
2007,06,21,11,51,16.90
2007,06,21,11,52,16.80
2007,06,21,11,53,16.80
2007,06,21,11,54,16.80
2007,06,21,11,55,16.80
2007,06,21,11,56,16.70
2007,06,21,11,57,16.60
2007,06,21,11,58,16.60
2007,06,21,11,59,16.60
2007,06,21,12,00,16.60
2007,06,21,12,01,16.70
2007,06,21,12,02,16.80
2007,06,21,12,03,17.00
2007,06,21,12,04,17.10
2007,06,21,12,05,17.20
2007,06,21,12,06,17.40
2007,06,21,12,07,17.60
2007,06,21,12,08,17.80
2007,06,21,12,09,17.90
2007,06,21,12,10,17.90
2007,06,21,12,11,18.00
2007,06,21,12,12,18.10
2007,06,21,12,13,18.20
2007,06,21,12,14,18.20
2007,06,21,12,15,18.20
2007,06,21,12,16,18.20
2007,06,21,12,17,18.30
2007,06,21,12,18,18.30
2007,06,21,12,19,18.10
2007,06,21,12,20,18.00
2007,06,21,12,21,17.90
2007,06,21,12,22,17.90
2007,06,21,12,23,18.00
2007,06,21,12,24,18.10
2007,06,21,12,25,18.10
2007,06,21,12,26,18.10
2007,06,21,12,27,18.20
2007,06,21,12,28,18.40
2007,06,21,12,29,18.60
2007,06,21,12,30,18.80
2007,06,21,12,31,18.90
2007,06,21,12,32,19.00
2007,06,21,12,33,19.10
2007,06,21,12,34,19.20
2007,06,21,12,35,19.30
2007,06,21,12,36,19.40
2007,06,21,12,37,19.30
2007,06,21,12,38,19.20
2007,06,21,12,39,19.10
2007,06,21,12,40,18.90
2007,06,21,12,41,18.90
2007,06,21,12,42,18.80
2007,06,21,12,43,18.90
2007,06,21,12,44,19.00
2007,06,21,12,45,19.10
2007,06,21,12,46,19.30
2007,06,21,12,47,19.40
2007,06,21,12,48,19.50
2007,06,21,12,49,19.60
2007,06,21,12,50,19.70
2007,06,21,12,51,19.80
2007,06,21,12,52,19.90
2007,06,21,12,53,20.00
2007,06,21,12,54,20.10
2007,06,21,12,55,20.10
2007,06,21,12,56,20.10
2007,06,21,12,57,20.10
2007,06,21,12,58,20.00
2007,06,21,12,59,19.80
2007,06,21,13,00,19.70
2007,06,21,13,01,19.50
2007,06,21,13,02,19.40
2007,06,21,13,03,19.40
2007,06,21,13,04,19.40
2007,06,21,13,05,19.40
2007,06,21,13,06,19.40
2007,06,21,13,07,19.30
2007,06,21,13,08,19.20
2007,06,21,13,09,19.00
2007,06,21,13,10,18.90
2007,06,21,13,11,19.00
2007,06,21,13,12,19.10
2007,06,21,13,13,19.20
2007,06,21,13,14,19.20
2007,06,21,13,15,19.30
2007,06,21,13,16,19.40
2007,06,21,13,17,19.50
2007,06,21,13,18,19.70
2007,06,21,13,19,19.70
2007,06,21,13,20,19.80
2007,06,21,13,21,19.70
2007,06,21,13,22,19.70
2007,06,21,13,23,19.80
2007,06,21,13,24,19.90
2007,06,21,13,25,19.90
2007,06,21,13,26,20.00
2007,06,21,13,27,20.10
2007,06,21,13,28,20.10
2007,06,21,13,29,20.20
2007,06,21,13,30,20.30
2007,06,21,13,31,20.40
2007,06,21,13,32,20.30
2007,06,21,13,33,20.40
2007,06,21,13,34,20.40
2007,06,21,13,35,20.20
2007,06,21,13,36,20.10
2007,06,21,13,37,20.10
2007,06,21,13,38,20.10
2007,06,21,13,39,20.10
2007,06,21,13,40,20.10
2007,06,21,13,41,20.00
2007,06,21,13,42,19.90
2007,06,21,13,43,20.00
2007,06,21,13,44,20.10
2007,06,21,13,45,20.20
2007,06,21,13,46,20.30
2007,06,21,13,47,20.40
2007,06,21,13,48,20.20
2007,06,21,13,49,20.10
2007,06,21,13,50,20.10
2007,06,21,13,51,20.10
2007,06,21,13,52,20.10
2007,06,21,13,53,20.10
2007,06,21,13,54,20.20
2007,06,21,13,55,20.20
2007,06,21,13,56,20.30
2007,06,21,13,57,20.30
2007,06,21,13,58,20.00
2007,06,21,13,59,19.70
2007,06,21,14,00,19.50
2007,06,21,14,01,19.40
2007,06,21,14,02,19.40
2007,06,21,14,03,19.40
2007,06,21,14,04,19.50
2007,06,21,14,05,19.60
2007,06,21,14,06,19.50
2007,06,21,14,07,19.40
2007,06,21,14,08,19.30
2007,06,21,14,09,19.40
2007,06,21,14,10,19.60
2007,06,21,14,11,19.90
2007,06,21,14,12,20.10
2007,06,21,14,13,20.40
2007,06,21,14,14,20.70
2007,06,21,14,15,20.90
2007,06,21,14,16,21.00
2007,06,21,14,17,21.10
2007,06,21,14,18,20.90
2007,06,21,14,19,20.80
2007,06,21,14,20,20.70
2007,06,21,14,21,20.50
2007,06,21,14,22,20.30
2007,06,21,14,23,20.20
2007,06,21,14,24,20.10
2007,06,21,14,25,20.10
2007,06,21,14,26,20.10
2007,06,21,14,27,20.20
2007,06,21,14,28,20.40
2007,06,21,14,29,20.50
2007,06,21,14,30,20.60
2007,06,21,14,31,20.60
2007,06,21,14,32,20.70
2007,06,21,14,33,20.50
2007,06,21,14,34,20.20
2007,06,21,14,35,20.10
2007,06,21,14,36,20.00
2007,06,21,14,37,19.90
2007,06,21,14,38,19.80
2007,06,21,14,39,19.90
2007,06,21,14,40,20.00
2007,06,21,14,41,20.10
2007,06,21,14,42,20.10
2007,06,21,14,43,20.20
2007,06,21,14,44,20.20
2007,06,21,14,45,20.30
2007,06,21,14,46,20.30
2007,06,21,14,47,20.40
2007,06,21,14,48,20.40
2007,06,21,14,49,20.40
2007,06,21,14,50,20.40
2007,06,21,14,51,20.30
2007,06,21,14,52,20.30
2007,06,21,14,53,20.30
2007,06,21,14,54,20.30
2007,06,21,14,55,20.30
2007,06,21,14,56,20.40
2007,06,21,14,57,20.40
2007,06,21,14,58,20.40
2007,06,21,14,59,20.40
2007,06,21,15,00,20.50
2007,06,21,15,01,20.60
2007,06,21,15,02,20.70
2007,06,21,15,03,20.70
2007,06,21,15,04,20.80
2007,06,21,15,05,20.80
2007,06,21,15,06,20.80
2007,06,21,15,07,20.90
2007,06,21,15,08,20.90
2007,06,21,15,09,20.80
2007,06,21,15,10,20.80
2007,06,21,15,11,20.80
2007,06,21,15,12,20.80
2007,06,21,15,13,20.70
2007,06,21,15,14,20.50
2007,06,21,15,15,20.10
2007,06,21,15,16,19.80
2007,06,21,15,17,19.60
2007,06,21,15,18,19.60
2007,06,21,15,19,19.70
2007,06,21,15,20,19.80
2007,06,21,15,21,19.90
2007,06,21,15,22,20.00
2007,06,21,15,23,20.10
2007,06,21,15,24,20.30
2007,06,21,15,25,20.30
2007,06,21,15,26,20.50
2007,06,21,15,27,20.60
2007,06,21,15,28,20.80
2007,06,21,15,29,20.80
2007,06,21,15,30,20.80
2007,06,21,15,31,20.80
2007,06,21,15,32,20.70
2007,06,21,15,33,20.70
2007,06,21,15,34,20.70
2007,06,21,15,35,20.70
2007,06,21,15,36,20.80
2007,06,21,15,37,20.90
2007,06,21,15,38,20.80
2007,06,21,15,39,20.70
2007,06,21,15,40,20.60
2007,06,21,15,41,20.50
2007,06,21,15,42,20.40
2007,06,21,15,43,20.40
2007,06,21,15,44,20.40
2007,06,21,15,45,20.30
2007,06,21,15,46,20.20
2007,06,21,15,47,20.10
2007,06,21,15,48,20.10
2007,06,21,15,49,20.00
2007,06,21,15,50,19.70
2007,06,21,15,51,19.50
2007,06,21,15,52,19.30
2007,06,21,15,53,19.20
2007,06,21,15,54,19.20
2007,06,21,15,55,19.10
2007,06,21,15,56,19.00
2007,06,21,15,57,18.90
2007,06,21,15,58,18.90
2007,06,21,15,59,18.90
2007,06,21,16,00,19.00
2007,06,21,16,01,19.10
2007,06,21,16,02,19.20
2007,06,21,16,03,19.30
2007,06,21,16,04,19.50
2007,06,21,16,05,19.60
2007,06,21,16,06,19.50
2007,06,21,16,07,19.50
2007,06,21,16,08,19.60
2007,06,21,16,09,19.70
2007,06,21,16,10,19.80
2007,06,21,16,11,19.90
2007,06,21,16,12,19.90
2007,06,21,16,13,20.00
2007,06,21,16,14,20.10
2007,06,21,16,15,20.20
2007,06,21,16,16,20.30
2007,06,21,16,17,20.40
2007,06,21,16,18,20.40
2007,06,21,16,19,20.30
2007,06,21,16,20,20.20
2007,06,21,16,21,20.10
2007,06,21,16,22,20.20
2007,06,21,16,23,20.20
2007,06,21,16,24,20.40
2007,06,21,16,25,20.50
2007,06,21,16,26,20.60
2007,06,21,16,27,20.70
2007,06,21,16,28,20.80
2007,06,21,16,29,20.90
2007,06,21,16,30,21.00
2007,06,21,16,31,21.00
2007,06,21,16,32,21.00
2007,06,21,16,33,21.10
2007,06,21,16,34,21.10
2007,06,21,16,35,21.10
2007,06,21,16,36,21.10
2007,06,21,16,37,21.00
2007,06,21,16,38,20.70
2007,06,21,16,39,20.60
2007,06,21,16,40,20.60
2007,06,21,16,41,20.50
2007,06,21,16,42,20.40
2007,06,21,16,43,20.20
2007,06,21,16,44,20.00
2007,06,21,16,45,19.70
2007,06,21,16,46,19.40
2007,06,21,16,47,19.20
2007,06,21,16,48,19.00
2007,06,21,16,49,18.90
2007,06,21,16,50,18.90
2007,06,21,16,51,18.90
2007,06,21,16,52,18.90
2007,06,21,16,53,18.90
2007,06,21,16,54,18.90
2007,06,21,16,55,18.90
2007,06,21,16,56,18.90
2007,06,21,16,57,18.80
2007,06,21,16,58,18.90
2007,06,21,16,59,18.90
2007,06,21,17,00,18.90
2007,06,21,17,01,18.90
2007,06,21,17,02,19.00
2007,06,21,17,03,19.00
2007,06,21,17,04,19.10
2007,06,21,17,05,19.20
2007,06,21,17,06,19.30
2007,06,21,17,07,19.30
2007,06,21,17,08,19.40
2007,06,21,17,09,19.40
2007,06,21,17,10,19.40
2007,06,21,17,11,19.40
2007,06,21,17,12,19.40
2007,06,21,17,13,19.40
2007,06,21,17,14,19.50
2007,06,21,17,15,19.50
2007,06,21,17,16,19.40
2007,06,21,17,17,19.30
2007,06,21,17,18,19.20
2007,06,21,17,19,19.10